Regional Weather Roundup
Issued by NWS

Home | Current Version | Previous Version | Text Only | Print | Product List | Glossary Off
Versions: 1 2 3 4 5 6 7 8 9 10 11 12 13 14 15 16 17 18 19 20 21 22 23 24 25 26 27

000
ASUS45 KBOU 222007
RWRCO

WEATHER ROUNDUP FOR COLORADO
NATIONAL WEATHER SERVICE DENVER/BOULDER CO
200 PM MDT WED OCT 22 2014

NOTE: "FAIR" INDICATES FEW OR NO CLOUDS BELOW 12000 FEET WITH NO
SIGNIFICANT WEATHER AND/OR OBSTRUCTIONS TO VISIBILITY.

COZ001>005-013-030-031-222100-
...NORTHWEST COLORADO...

CITY           SKY/WX    TMP DP  RH WIND       PRES   REMARKS
CRAIG          MOSUNNY   57  41  55 W12       30.19F
HAYDEN         PTSUNNY   54  39  58 N10       30.19F
MEEKER         MOSUNNY   60  34  37 NW12G20   30.17F
MOUNT WERNER   NOT AVBL
STEAMBOAT SPGS MOSUNNY   52  39  61 CALM      30.19F
WALDEN         MOSUNNY   52  27  37 W10G21    30.21S
$$

COZ006>008-011-222100-
...WEST CENTRAL VALLEYS...

CITY           SKY/WX    TMP DP  RH WIND       PRES   REMARKS
GRAND JUNCTION MOSUNNY   67  45  45 NW6       30.12F
MONTROSE       MOSUNNY   67  40  37 N9        30.15F
EAGLE          PTSUNNY   54  45  71 VRB5      30.19F
RIFLE          MOSUNNY   61  45  55 VRB5      30.14F
DELTA          MOSUNNY   69  42  37 SW7       30.13S
NUCLA          MOSUNNY   68  32  26 W8        30.19F
$$

COZ017>023-064>068-222100-
...SOUTHWEST COLORADO...

CITY           SKY/WX    TMP DP  RH WIND       PRES   REMARKS
DURANGO        HVY RAIN  53  47  79 W13G39    30.22S
CORTEZ         SUNNY     68  37  32 W9        30.18F
PAGOSA SPRINGS RAIN      58  38  47 W9G21     30.25R
TELLURIDE      CLOUDY    51  32  47 S3        30.33S
WOLF CREEK PAS LGT SNOW  32  32 100 S14         N/A  WCI  22
$$

COZ009-010-012-014-032>034-037-058>063-222100-
...CENTRAL COLORADO...

CITY           SKY/WX    TMP DP  RH WIND       PRES   REMARKS
ASPEN          LGT RAIN  48  34  58 W15G28    30.25R
BUENA VISTA    CLOUDY    55  33  42 NW17G30   30.22R
COPPER MTN     LGT SNOW  37  32  81 W9G16     30.38S
BERTHOUD PASS  CLOUDY    28  27  93 W20G30    30.39S WCI  15
COTTONWOOD PAS CLOUDY    50  32  50 N6G17     30.30S
GUNNISON       MOSUNNY   55  37  50 SW13G18   30.26F
KREMMLING      PTSUNNY   59  36  41 N6          N/A
LEADVILLE      CLOUDY    41  31  67 NW17G29   30.30R
MONARCH PASS   FOG       32  32 100 W31G39    30.49S VSB<1/4 WCI  17
SALIDA         PTSUNNY   61  34  35 W13G23    30.28F
SUNLIGHT       CLOUDY    43  37  81 CALM      30.36F
WILKERSON PASS NOT AVBL
$$

COZ069>075-222100-
...SAN LUIS VALLEY/SANGRE DE CRISTO MOUNTAINS...

CITY           SKY/WX    TMP DP  RH WIND       PRES   REMARKS
ALAMOSA        SUNNY     64  28  25 VRB3      30.19F
LA VETA PASS   MOSUNNY   54  30  40 S8G20     30.31F
SAGUACHE       CLOUDY    57  32  38 S7        30.22F
$$

COZ035-036-038>040-222100-
...NORTHERN COLORADO FRONT RANGE...

CITY           SKY/WX    TMP DP  RH WIND       PRES   REMARKS
DENVER INTL AP MOSUNNY   69  36  29 CALM      30.07F
DMNS CITY PARK   N/A     69  34  27 E5        30.05F
AURORA         PTSUNNY   69  36  29 NE5       30.08F
FRONT RANGE AP MOSUNNY   68  39  34 NE6       30.09F
ERIE MUNI ARPT PTSUNNY   70  35  27 W7        30.06F
BOULDER MUN AP PTSUNNY   68  34  28 S10G24    30.06F
CENTENNIAL     PTSUNNY   66  32  28 NE6       30.08F
BROOMFIELD     PTSUNNY   64  37  36 N5        30.08F
FORT COLLINS   MOSUNNY   70  39  32 CALM      30.06F
LONGMONT       MOSUNNY   72  34  25 SW14      30.06F
$$

COZ041-046-047-076>085-087-088-222100-
...PIKES PEAK/PALMER DIVIDE AND SOUTHERN FOOTHILLS...

CITY           SKY/WX    TMP DP  RH WIND       PRES   REMARKS
COLO. SPRINGS  MOSUNNY   64  36  35 SE7       30.11F
A. F. ACADEMY  MOSUNNY   65  36  33 SE9       30.11F
ELLICOTT       SUNNY     65  36  34 S6        30.11F
FALCON         MOSUNNY   65  34  31 S12       30.15F
FORT CARSON    PTSUNNY   64  40  40 E12       30.08F
LIMON          SUNNY     65  36  34 CALM      30.09F
MONUMENT HILL  PTSUNNY   63  27  25 NW8       30.13F
TRINIDAD       SUNNY     69  39  33 NE5       30.10F
$$

COZ042>045-048>051-090-091-222100-
...NORTHEAST COLORADO...

CITY           SKY/WX    TMP DP  RH WIND       PRES   REMARKS
GREELEY ARPT   MOSUNNY   68  39  34 SE5       30.06F
AKRON          MOSUNNY   67  37  33 NW7       30.07F
BURLINGTON     SUNNY     71  41  33 NE8       30.04F
WRAY           SUNNY     73  36  25 N14G22    30.03F
STERLING       SUNNY     72  41  33 N12       30.04F
HOLYOKE        SUNNY     73  39  29 N13       30.04F
FORT MORGAN    MOSUNNY   70  37  29 CALM      30.07S
$$

COZ086-089-092>099-222100-
...SOUTHEAST COLORADO...

CITY           SKY/WX    TMP DP  RH WIND       PRES   REMARKS
PUEBLO         SUNNY     72  39  30 CALM      30.04F
LA JUNTA       SUNNY     73  43  33 S6        30.03F
LAMAR          SUNNY     77  45  32 NE7       30.00F
SPRINGFIELD      N/A     73  43  33 NE7G16    30.04F
$$



USA.gov is the U.S. government's official web portal to all federal, state and local government web resources and services.